|
NORAD ID: 20303 Int'l Code: 1989-085B
Perigee: 454.1 km
Apogee: 672.5 km
Inclination: 35.6 °
Period: 95.8 minutes
Semi major axis: 6934 km
Launch date: October 21, 1989
Source: United States (US)
Note: This is a ROCKET BODY
Two Line Element Set (TLE):
1 20303U 89085B 13138.70848178 .00008911 00000-0 48882-3 0 5243
2 20303 035.6342 228.8566 0157466 125.2395 358.1442 15.03483594274389
Source:
NASA's NSSDC Master Catalog entry for DELTA 2 R/B(1)
|